TimeCDT,TemperatureF,Dew PointF,Humidity,Sea Level PressureIn,VisibilityMPH,Wind Direction,Wind SpeedMPH,Gust SpeedMPH,PrecipitationIn,Events,Conditions,WindDirDegrees,DateUTC
12:15 AM,67.1,64.4,91,29.93,10.0,SE,5.8,-,N/A,,Scattered Clouds,130,2013-06-25 05:15:00
12:35 AM,66.6,64.4,93,29.92,10.0,SE,3.5,-,N/A,,Scattered Clouds,130,2013-06-25 05:35:00
12:55 AM,67.1,64.4,91,29.91,10.0,SSE,10.4,-,N/A,,Scattered Clouds,150,2013-06-25 05:55:00
1:15 AM,68.7,64.2,86,29.91,10.0,SSE,11.5,-,N/A,Thunderstorm,Scattered Clouds,150,2013-06-25 06:15:00
1:35 AM,69.3,64.4,84,29.93,10.0,South,8.1,-,N/A,Thunderstorm,Mostly Cloudy,170,2013-06-25 06:35:00
1:55 AM,69.3,65.3,87,29.97,10.0,NNW,15.0,23.0,N/A,Thunderstorm,Thunderstorm,340,2013-06-25 06:55:00
2:15 AM,66.4,63.9,92,29.99,4.0,NNW,11.5,16.1,N/A,Rain-Thunderstorm,Heavy Thunderstorms and Rain,330,2013-06-25 07:15:00
2:35 AM,65.3,63.5,94,29.95,1.8,ESE,9.2,-,N/A,Rain-Thunderstorm,Light Thunderstorms and Rain,120,2013-06-25 07:35:00
2:55 AM,65.3,63.5,94,29.94,10.0,ESE,4.6,-,N/A,Rain-Thunderstorm,Light Thunderstorms and Rain,120,2013-06-25 07:55:00
3:15 AM,65.3,63.5,94,29.92,10.0,ESE,4.6,-,N/A,,Overcast,110,2013-06-25 08:15:00
3:35 AM,65.5,63.7,94,29.91,10.0,ESE,8.1,-,N/A,,Mostly Cloudy,120,2013-06-25 08:35:00
3:55 AM,65.7,63.9,94,29.91,10.0,ESE,5.8,-,0.01,,Mostly Cloudy,120,2013-06-25 08:55:00
4:15 AM,65.5,63.7,94,29.91,10.0,East,5.8,-,N/A,,Mostly Cloudy,100,2013-06-25 09:15:00
4:35 AM,65.7,63.9,94,29.92,10.0,ENE,4.6,-,N/A,,Mostly Cloudy,70,2013-06-25 09:35:00
4:55 AM,65.3,63.5,94,29.92,10.0,NE,9.2,-,N/A,,Mostly Cloudy,50,2013-06-25 09:55:00
5:15 AM,65.3,63.5,94,29.92,7.0,NE,10.4,-,N/A,,Overcast,50,2013-06-25 10:15:00
5:35 AM,65.3,63.5,94,29.92,7.0,ENE,9.2,-,N/A,,Overcast,60,2013-06-25 10:35:00
5:55 AM,65.7,63.9,94,29.91,10.0,East,5.8,-,N/A,,Mostly Cloudy,80,2013-06-25 10:55:00
6:15 AM,66.6,64.8,94,29.91,10.0,NE,11.5,-,N/A,,Overcast,50,2013-06-25 11:15:00
6:35 AM,66.6,64.8,94,29.91,10.0,ENE,10.4,-,N/A,,Overcast,60,2013-06-25 11:35:00
6:55 AM,66.6,64.8,94,29.90,10.0,ENE,6.9,-,N/A,,Overcast,60,2013-06-25 11:55:00
7:15 AM,67.3,65.3,93,29.92,10.0,East,4.6,-,N/A,Thunderstorm,Overcast,90,2013-06-25 12:15:00
7:35 AM,67.3,65.3,93,29.94,10.0,SE,10.4,-,N/A,Thunderstorm,Thunderstorm,130,2013-06-25 12:35:00
7:55 AM,67.8,65.7,93,29.95,3.0,Calm,Calm,-,N/A,Rain-Thunderstorm,Heavy Thunderstorms and Rain,0,2013-06-25 12:55:00
8:15 AM,67.5,65.5,93,29.94,7.0,Calm,Calm,-,N/A,Rain-Thunderstorm,Thunderstorms and Rain,0,2013-06-25 13:15:00
8:35 AM,67.1,65.3,94,29.97,7.0,SW,4.6,-,N/A,Rain-Thunderstorm,Light Thunderstorms and Rain,230,2013-06-25 13:35:00
8:55 AM,66.7,64.8,93,29.96,7.0,Calm,Calm,-,N/A,Rain-Thunderstorm,Thunderstorms and Rain,0,2013-06-25 13:55:00
9:15 AM,67.1,65.3,94,29.98,10.0,South,5.8,-,N/A,Rain-Thunderstorm,Light Thunderstorms and Rain,170,2013-06-25 14:15:00
9:35 AM,67.5,65.7,94,29.94,10.0,South,3.5,-,N/A,,Clear,180,2013-06-25 14:35:00
9:55 AM,68.7,66.9,94,29.91,10.0,SE,4.6,-,0.01,,Clear,140,2013-06-25 14:55:00
10:15 AM,70.5,68.5,93,29.90,10.0,South,9.2,-,N/A,,Clear,170,2013-06-25 15:15:00
10:35 AM,72.9,70.3,92,29.91,10.0,SSE,10.4,-,0.01,,Clear,160,2013-06-25 15:35:00
10:55 AM,74.3,71.6,91,29.89,10.0,SE,16.1,-,0.02,,Clear,140,2013-06-25 15:55:00
11:15 AM,74.3,70.2,87,29.88,10.0,SSE,19.6,-,N/A,,Clear,160,2013-06-25 16:15:00
11:35 AM,76.3,71.2,84,29.87,10.0,SSE,17.3,-,0.02,,Clear,150,2013-06-25 16:35:00
11:55 AM,78.4,73.0,83,29.89,10.0,South,11.5,16.1,0.06,,Clear,180,2013-06-25 16:55:00
12:15 PM,79.3,74.1,84,29.88,10.0,South,10.4,-,0.09,,Clear,170,2013-06-25 17:15:00
12:35 PM,79.5,73.6,82,29.89,10.0,South,10.4,-,0.32,,Clear,180,2013-06-25 17:35:00
12:55 PM,81.9,75.4,81,29.91,10.0,South,13.8,-,0.32,,Clear,190,2013-06-25 17:55:00
1:15 PM,80.6,74.5,82,29.90,10.0,SSW,13.8,17.3,N/A,,Scattered Clouds,200,2013-06-25 18:15:00
1:35 PM,79.3,74.3,84,29.90,10.0,SSW,8.1,-,N/A,,Mostly Cloudy,200,2013-06-25 18:35:00
1:55 PM,80.6,75.6,85,29.89,10.0,SSW,4.6,-,N/A,,Mostly Cloudy,200,2013-06-25 18:55:00
2:15 PM,80.1,75.0,85,29.87,10.0,SSE,3.5,-,N/A,,Scattered Clouds,160,2013-06-25 19:15:00
2:35 PM,79.3,75.0,87,29.87,10.0,SE,3.5,-,N/A,,Clear,140,2013-06-25 19:35:00
2:55 PM,81.9,77.0,85,29.87,10.0,SE,3.5,-,N/A,,Scattered Clouds,140,2013-06-25 19:55:00
3:15 PM,81.9,77.0,85,29.87,10.0,SE,3.5,-,N/A,,Scattered Clouds,130,2013-06-25 20:15:00
3:35 PM,81.9,77.2,86,29.86,10.0,ESE,4.6,-,N/A,,Clear,120,2013-06-25 20:35:00
3:55 PM,82.0,76.6,84,29.85,10.0,East,6.9,-,N/A,,Scattered Clouds,100,2013-06-25 20:55:00
4:15 PM,81.9,76.8,85,29.86,10.0,Calm,Calm,-,N/A,,Mostly Cloudy,0,2013-06-25 21:15:00
4:24 PM,82.4,77.0,84,29.85,10.0,SE,4.6,-,N/A,,Mostly Cloudy,130,2013-06-25 21:24:00
4:35 PM,81.9,76.8,85,29.85,10.0,Calm,Calm,-,N/A,,Mostly Cloudy,0,2013-06-25 21:35:00
4:55 PM,81.9,77.0,85,29.85,10.0,SSW,3.5,-,N/A,,Mostly Cloudy,210,2013-06-25 21:55:00
5:15 PM,81.9,76.6,84,29.85,10.0,SW,4.6,-,N/A,,Mostly Cloudy,220,2013-06-25 22:15:00
5:35 PM,81.9,76.3,83,29.84,10.0,SSW,10.4,-,N/A,,Scattered Clouds,210,2013-06-25 22:35:00
5:55 PM,80.6,75.2,84,29.84,10.0,SW,4.6,-,N/A,,Clear,220,2013-06-25 22:55:00
6:15 PM,81.9,75.7,82,29.84,10.0,SW,4.6,-,N/A,,Clear,230,2013-06-25 23:15:00
6:35 PM,81.9,75.6,81,29.85,10.0,Calm,Calm,-,N/A,,Scattered Clouds,0,2013-06-25 23:35:00
6:55 PM,79.3,73.9,83,29.84,10.0,Calm,Calm,-,N/A,,Scattered Clouds,0,2013-06-25 23:55:00
7:15 PM,79.3,74.5,85,29.84,10.0,Calm,Calm,-,N/A,,Clear,0,2013-06-26 00:15:00
7:35 PM,79.3,75.2,87,29.84,10.0,Calm,Calm,-,N/A,,Clear,0,2013-06-26 00:35:00
7:55 PM,79.3,74.8,86,29.84,10.0,Calm,Calm,-,N/A,,Clear,0,2013-06-26 00:55:00
8:15 PM,77.0,74.3,91,29.83,7.0,East,3.5,-,N/A,,Clear,100,2013-06-26 01:15:00
8:35 PM,76.8,74.1,91,29.84,7.0,Calm,Calm,-,N/A,,Clear,0,2013-06-26 01:35:00
8:55 PM,74.3,72.1,93,29.84,7.0,Calm,Calm,-,N/A,,Clear,0,2013-06-26 01:55:00
9:15 PM,74.3,72.5,94,29.84,5.0,SE,3.5,-,N/A,,Clear,140,2013-06-26 02:15:00
9:35 PM,74.3,72.5,94,29.84,5.0,SSE,4.6,-,N/A,,Clear,150,2013-06-26 02:35:00
9:55 PM,74.3,72.5,94,29.84,7.0,SSE,3.5,-,N/A,,Clear,150,2013-06-26 02:55:00
10:15 PM,74.3,72.5,94,29.85,5.0,ESE,3.5,-,N/A,,Clear,120,2013-06-26 03:15:00
10:35 PM,74.3,72.5,94,29.85,7.0,ESE,4.6,-,N/A,,Clear,120,2013-06-26 03:35:00
10:55 PM,74.3,72.1,93,29.84,7.0,ESE,3.5,-,N/A,,Scattered Clouds,120,2013-06-26 03:55:00
11:15 PM,74.3,72.1,93,29.84,5.0,ENE,4.6,-,N/A,,Scattered Clouds,70,2013-06-26 04:15:00
11:35 PM,74.3,72.5,94,29.84,4.0,East,3.5,-,N/A,,Clear,90,2013-06-26 04:35:00
11:55 PM,74.3,72.5,94,29.84,2.5,East,4.6,-,N/A,,Clear,80,2013-06-26 04:55:00